Simultaneous Nadir Overpasses (SNOs) Predictions

Prediction of SNOs between LANDSAT-8 and NOAA-19 Satellite Orbit:

Table of predicted SNOs for the next 14.0 days since TLE Epoch: 8/19/2023
Index Date (LANDSAT-8) Time (LANDSAT-8) Lat,Lon (LANDSAT-8) SZA (LANDSAT-8 ) Date (NOAA-19) Time (NOAA-19) Lat,Lon (NOAA-19) SZA (NOAA-19 ) Distance(km) Time Diff (sec)
1 08/19/2023 23:23:16 -80.94, 46.55 109.87 08/19/2023 23:22:18 -80.93, 46.38 109.91 3.00 58
2 08/20/2023 00:12:42 80.94,-145.73 70.16 08/20/2023 00:13:13 80.94,-145.60 70.18 2.30 31
3 08/22/2023 05:46:28 -80.93, -49.38 109.13 08/22/2023 05:45:42 -80.93, -49.33 109.14 0.98 46
4 08/22/2023 06:35:54 80.93, 118.31 70.90 08/22/2023 06:36:37 80.94, 118.47 70.94 2.76 43
5 08/24/2023 12:09:39 -80.93,-145.08 108.33 08/24/2023 12:09:06 -80.93,-145.12 108.35 0.74 33
6 08/24/2023 12:59:05 80.94, 22.60 71.69 08/24/2023 13:00:01 80.94, 22.48 71.70 1.96 56
7 08/26/2023 18:32:50 -80.93, 119.10 107.54 08/26/2023 18:32:30 -80.93, 119.02 107.56 1.43 20
8 08/26/2023 19:22:16 80.93, -73.24 72.48 08/26/2023 19:23:24 80.94, -73.18 72.51 1.11 68
9 08/29/2023 00:56:01 -80.92, 23.17 106.76 08/29/2023 00:55:54 -80.93, 23.10 106.76 1.59 7



Historial Predications of SNOs between LANDSAT-8 and NOAA-19
